Location: Shenandoah County Park
(38.9356°N, 78.4524°W)
Time: 06:12:21
(UTC-04:00)

A-11 Canister half - All Passes

Search period start: 29 May 2024 00:00
Search period end: 08 June 2024 00:00
Orbit: 1514 x 1685 km, 47.2° (Epoch: 28 May)

Date Brightness Start Highest point End Pass type
(mag) Time Alt. Az. Time Alt. Az. Time Alt. Az.
29 May - 00:20:07 10° SSW 00:29:29 52° SE 00:38:32 10° ENE visible
29 May - 02:24:39 10° WSW 02:34:18 69° NNW 02:43:40 10° ENE visible
29 May - 04:31:11 10° WNW 04:40:23 52° N 04:49:22 10° ENE visible
29 May - 06:36:54 10° WNW 06:46:17 76° NNE 06:55:32 10° ESE daylight
29 May - 08:42:15 10° WNW 08:50:43 42° SW 08:59:12 10° SSE daylight
29 May - 22:01:04 10° SE 22:03:13 11° ESE 22:05:20 10° ESE visible
29 May - 23:57:14 10° SSW 00:06:33 49° SE 00:15:32 10° ENE visible
30 May - 02:01:34 10° WSW 02:11:17 72° NNW 02:20:40 10° ENE visible
30 May - 04:08:05 10° WNW 04:17:19 52° N 04:26:19 10° ENE visible
30 May - 06:13:53 10° WNW 06:23:17 74° NNE 06:32:31 10° ESE daylight
30 May - 08:19:12 10° WNW 08:27:49 45° SW 08:36:25 10° SSE daylight
30 May - 23:34:23 10° SSW 23:43:36 46° SE 23:52:31 10° ENE visible
31 May - 01:38:31 10° WSW 01:48:16 74° NNW 01:57:42 10° ENE visible
31 May - 03:45:01 10° WNW 03:54:16 52° N 04:03:17 10° ENE visible
31 May - 05:50:54 10° WNW 06:00:17 71° NNE 06:09:30 10° ESE daylight
31 May - 07:56:10 10° WNW 08:04:54 48° SW 08:13:36 10° SSE daylight
31 May - 23:11:33 10° SSW 23:20:40 43° SE 23:29:29 10° ENE visible
01 Jun - 01:15:27 10° WSW 01:25:15 77° NNW 01:34:43 10° ENE visible
01 Jun - 03:21:54 10° WNW 03:31:12 52° N 03:40:14 10° ENE visible
01 Jun - 05:27:52 10° WNW 05:37:16 69° NNE 05:46:29 10° ESE daylight
01 Jun - 07:33:08 10° WNW 07:41:59 51° SW 07:50:47 10° SSE daylight
01 Jun - 09:42:51 10° WSW 09:45:11 11° WSW 09:47:31 10° SW daylight
01 Jun - 22:48:43 10° SSW 22:57:43 41° SE 23:06:27 10° ENE visible
02 Jun - 00:52:23 10° WSW 01:02:14 80° NNW 01:11:44 10° ENE visible
02 Jun - 02:58:48 10° W 03:08:08 52° N 03:17:12 10° ENE visible
02 Jun - 05:04:51 10° WNW 05:14:15 67° NNE 05:23:27 10° ESE visible
02 Jun - 07:10:06 10° WNW 07:19:04 54° SW 07:27:56 10° SSE daylight
02 Jun - 09:18:51 10° W 09:22:19 13° WSW 09:25:48 10° SW daylight
02 Jun - 22:25:55 10° SSW 22:34:47 38° SE 22:43:23 10° ENE visible
03 Jun - 00:29:20 10° WSW 00:39:13 83° NNW 00:48:46 10° ENE visible
03 Jun - 02:35:42 10° W 02:45:05 53° N 02:54:10 10° ENE visible
03 Jun - 04:41:49 10° WNW 04:51:15 65° NNE 05:00:25 10° ESE visible
03 Jun - 06:47:05 10° WNW 06:56:08 58° SW 07:05:05 10° SE daylight
03 Jun - 08:55:11 10° W 08:59:28 14° WSW 09:03:46 10° SSW daylight
03 Jun - 22:03:08 10° SSW 22:11:52 36° SE 22:20:19 10° ENE visible
04 Jun - 00:06:18 10° WSW 00:16:13 86° NNW 00:25:47 10° ENE visible
04 Jun - 02:12:35 10° W 02:22:01 53° N 02:31:09 10° ENE visible
04 Jun - 04:18:48 10° WNW 04:28:13 63° NNE 04:37:23 10° E visible
04 Jun - 06:24:03 10° WNW 06:33:12 61° SW 06:42:13 10° SE daylight
04 Jun - 08:31:40 10° W 08:36:36 16° WSW 08:41:33 10° SSW daylight
04 Jun - 21:40:23 10° S 21:48:56 33° SE 21:57:14 10° ENE visible
04 Jun - 23:43:16 10° WSW 23:53:12 89° NNW 00:02:49 10° ENE visible
05 Jun - 01:49:29 10° W 01:58:57 54° N 02:08:08 10° ENE visible
05 Jun - 03:55:45 10° WNW 04:05:11 61° NNE 04:14:21 10° E visible
05 Jun - 06:01:03 10° WNW 06:10:16 65° SW 06:19:20 10° SE daylight
05 Jun - 08:08:16 10° W 08:13:45 17° SW 08:19:13 10° SSW daylight
05 Jun - 21:17:39 10° S 21:26:00 31° SE 21:34:08 10° ENE visible
05 Jun - 23:20:14 10° SW 23:30:12 88° SSE 23:39:50 10° ENE visible
06 Jun - 01:26:22 10° W 01:35:54 55° N 01:45:06 10° ENE visible
06 Jun - 03:32:42 10° WNW 03:42:09 60° NNE 03:51:18 10° E visible
06 Jun - 05:38:01 10° WNW 05:47:19 69° SW 05:56:27 10° SE daylight
06 Jun - 07:44:56 10° W 07:50:52 19° SW 07:56:49 10° SSW daylight
06 Jun - 20:54:57 10° S 21:03:05 29° SE 21:11:01 10° ENE visible
06 Jun - 22:57:13 10° SW 23:07:13 84° SE 23:16:51 10° ENE visible
07 Jun - 01:03:15 10° W 01:12:50 55° N 01:22:05 10° ENE visible
07 Jun - 03:09:39 10° WNW 03:19:07 59° NNE 03:28:16 10° E visible
07 Jun - 05:15:01 10° WNW 05:24:22 72° SW 05:33:33 10° SE visible
07 Jun - 07:21:39 10° W 07:28:01 21° SW 07:34:20 10° S daylight
07 Jun - 20:32:17 10° S 20:40:10 27° SE 20:47:53 10° ENE daylight
07 Jun - 22:34:13 10° SW 22:44:13 81° SE 22:53:52 10° ENE visible
